Weather in Manhattan

United States     39°10′43″N   96°33′42″W
temp.,
°C
wind,
m/s
gust,
m/s
humid.,
%
clouds,
%
prec.,
mm/h
press.,
hPa
HPBL,
m
16 may, sun
sun1601:00+14se499784 0.3 1017211
04:00+15ese41098100 5.3 1015327
07:00+15ese4699100 7.3 1014234
10:00+16ese81297100 3.9 1014451
13:00+17ese4798100 9.1 1014328
16:00+22sse4778100 3.1 1012850
19:00+20ssw61085100 7.8 1011484
22:00+16sse2494100 4.3 101387
17 may, mon
mon1701:00+15sse2697100 4.3 1013208
04:00+14se119898 0.0 101311
07:00+14ene1298100 0.0 101378
10:00+18e4585100 0.0 1013673
13:00+21se337576 0.4 1014852
16:00+23se3265100 0.1 10121320
19:00+21ene3376100 0.3 1012244
22:00+17ene4994100 0.0 1013236
18 may, tue
tue1801:00+16e499757 0.0 1013309
04:00+14e369993 0.0 1014202
07:00+15e4796100 0.0 1013402
10:00+16e6892100 0.0 1013482
13:00+18ese4691100 0.6 1014537
16:00+18ene469148 0.9 1012414
19:00+20ese4684100 2.2 1011446
22:00+17ese369485 0.5 1011125
19 may, wed
wed1901:00+17ese3697100 0.5 1011138
04:00+16ese2396100 0.0 101050
07:00+16ese2295100 0.1 101169
10:00+17sse3596100 0.6 1012203
13:00+23sse456883 0.9 10111228
16:00+24sse776866 0.4 10111301
19:00+21sse51084100 0.7 1011743
22:00+19sse51294100 0.3 1012428
20 may, thu
thu2001:00+19sse61394100 0.4 1013748
04:00+17sse5149499 0.2 1013608
07:00+17s61393100 1.3 1015813
10:00+19s81186100 0.0 1016770
13:00+21s91277100 0.1 1016992
16:00+23s91371100 0.0 10161230
19:00+21s71383100 0.1 1016827
22:00+19sse51393100 0.0 1018651